| time (UTC) | temp F | wind direction | speed MPH | gust MPH | rain 1hr in | rain 24hr in | rain mn in | humidity % | barometer mb |
| 20260901042655 | 73 | 251 | 0.0 | 0.0 | 0.00 | 0.00 | 0.00 | 78 | 1011.9 |
| 20260901042412 | 73 | 251 | 0.0 | 0.0 | 0.00 | 0.00 | 0.00 | 77 | 1011.8 |
| 20260901041651 | 73 | 251 | 0.0 | 0.0 | 0.00 | 0.00 | 0.00 | 77 | 1012.0 |
| 20260901041154 | 73 | 251 | 0.0 | 0.0 | 0.00 | 0.00 | 0.00 | 76 | 1012.0 |
| 20260901040650 | 73 | 251 | 0.0 | 0.0 | 0.00 | 0.00 | 0.00 | 76 | 1012.0 |
| 20260901040351 | 74 | 251 | 0.0 | 0.0 | 0.00 | 0.00 | 0.00 | 75 | 1011.9 |
| 20260901040240 | 74 | 251 | 0.0 | 0.0 | 0.00 | 0.00 | 0.00 | 76 | 1012.0 |
| 20260901035146 | 74 | 251 | 0.0 | 0.0 | 0.00 | 0.00 | 0.00 | 74 | 1012.0 |
| 20260901034643 | 74 | 251 | 0.0 | 0.0 | 0.00 | 0.00 | 0.00 | 74 | 1012.1 |
| 20260901034136 | 74 | 251 | 0.0 | 0.0 | 0.00 | 0.00 | 0.00 | 74 | 1012.1 |
| 20260901033637 | 74 | 251 | 0.0 | 0.0 | 0.00 | 0.00 | 0.00 | 73 | 1012.1 |
| 20260901033137 | 75 | 251 | 0.0 | 0.0 | 0.00 | 0.00 | 0.00 | 72 | 1012.1 |
| 20260901032634 | 75 | 251 | 0.0 | 0.0 | 0.00 | 0.00 | 0.00 | 72 | 1012.1 |
| 20260901032130 | 75 | 252 | 0.0 | 0.0 | 0.00 | 0.00 | 0.00 | 71 | 1012.0 |
| 20260901031628 | 75 | 252 | 0.0 | 0.0 | 0.00 | 0.00 | 0.00 | 71 | 1011.9 |
| 20260901031610 | 75 | 254 | 0.0 | 0.0 | 0.00 | 0.00 | 0.00 | 71 | 1012.0 |
| 20260901030629 | 76 | 254 | 0.0 | 0.0 | 0.00 | 0.00 | 0.00 | 70 | 1012.0 |
| 20260901030128 | 76 | 252 | 0.0 | 0.0 | 0.00 | 0.00 | 0.00 | 69 | 1012.0 |
| 20260901025625 | 76 | 251 | 0.0 | 0.0 | 0.00 | 0.00 | 0.00 | 68 | 1012.0 |
| 20260901025126 | 76 | 250 | 0.0 | 0.0 | 0.00 | 0.00 | 0.00 | 68 | 1011.9 |
| 20260901024622 | 76 | 251 | 0.0 | 0.0 | 0.00 | 0.00 | 0.00 | 67 | 1011.9 |
| 20260901024121 | 76 | 251 | 0.0 | 0.0 | 0.00 | 0.00 | 0.00 | 67 | 1011.8 |
| 20260901023620 | 77 | 251 | 0.0 | 0.0 | 0.00 | 0.00 | 0.00 | 66 | 1011.8 |
| 20260901023337 | 77 | 251 | 0.0 | 0.0 | 0.00 | 0.00 | 0.00 | 65 | 1011.7 |
| 20260901022834 | 77 | 251 | 0.0 | 0.0 | 0.00 | 0.00 | 0.00 | 65 | 1011.6 |
| 20260901022113 | 77 | 250 | 0.0 | 0.0 | 0.00 | 0.00 | 0.00 | 64 | 1011.6 |
| 20260901021611 | 78 | 250 | 0.0 | 0.0 | 0.00 | 0.00 | 0.00 | 64 | 1011.6 |
| 20260901021119 | 78 | 250 | 0.0 | 0.0 | 0.00 | 0.00 | 0.00 | 63 | 1011.7 |
| 20260901020603 | 78 | 250 | 0.0 | 2.0 | 0.00 | 0.00 | 0.00 | 62 | 1011.6 |
| 20260901020117 | 78 | 251 | 0.0 | 2.0 | 0.00 | 0.00 | 0.00 | 62 | 1011.5 |
| 20260901015826 | 79 | 251 | 0.0 | 2.0 | 0.00 | 0.00 | 0.00 | 61 | 1011.5 |
| 20260901015106 | 79 | 251 | 0.0 | 1.0 | 0.00 | 0.00 | 0.00 | 61 | 1011.5 |
| 20260901014604 | 79 | 251 | 0.0 | 0.0 | 0.00 | 0.00 | 0.00 | 60 | 1011.5 |
| 20260901014104 | 79 | 251 | 0.0 | 2.0 | 0.00 | 0.00 | 0.00 | 59 | 1011.4 |
| 20260901013605 | 79 | 251 | 0.0 | 2.0 | 0.00 | 0.00 | 0.00 | 58 | 1011.3 |
| 20260901013104 | 80 | 251 | 0.0 | 0.0 | 0.00 | 0.00 | 0.00 | 57 | 1011.3 |
| 20260901012600 | 80 | 251 | 0.0 | 1.0 | 0.00 | 0.00 | 0.00 | 57 | 1011.1 |
| 20260901012102 | 80 | 251 | 0.0 | 1.0 | 0.00 | 0.00 | 0.00 | 55 | 1011.0 |
| 20260901011602 | 80 | 251 | 0.0 | 0.0 | 0.00 | 0.00 | 0.00 | 54 | 1011.0 |
| 20260901011059 | 81 | 251 | 0.0 | 0.0 | 0.00 | 0.00 | 0.00 | 52 | 1011.0 |
| 20260901010557 | 81 | 251 | 0.0 | 0.0 | 0.00 | 0.00 | 0.00 | 51 | 1011.0 |
| 20260901010107 | 82 | 251 | 0.0 | 0.0 | 0.00 | 0.00 | 0.00 | 50 | 1011.0 |
| 20260901005555 | 82 | 251 | 0.0 | 0.0 | 0.00 | 0.00 | 0.00 | 50 | 1011.0 |
| 20260901005317 | 82 | 251 | 0.0 | 0.0 | 0.00 | 0.00 | 0.00 | 49 | 1010.9 |
| 20260901004816 | 83 | 251 | 0.0 | 0.0 | 0.00 | 0.00 | 0.00 | 48 | 1010.9 |
| 20260901004046 | 83 | 251 | 0.0 | 0.0 | 0.00 | 0.00 | 0.00 | 48 | 1010.8 |
| 20260901003545 | 84 | 251 | 0.0 | 0.0 | 0.00 | 0.00 | 0.00 | 48 | 1010.7 |
| 20260901003302 | 84 | 251 | 0.0 | 0.0 | 0.00 | 0.00 | 0.00 | 47 | 1010.8 |
| 20260901002543 | 85 | 251 | 0.0 | 0.0 | 0.00 | 0.00 | 0.00 | 46 | 1010.8 |
| 20260901002043 | 85 | 251 | 0.0 | 0.0 | 0.00 | 0.00 | 0.00 | 46 | 1010.9 |
| 20260901001543 | 85 | 251 | 0.0 | 1.0 | 0.00 | 0.00 | 0.00 | 46 | 1010.9 |
| 20260901001040 | 86 | 251 | 0.0 | 1.0 | 0.00 | 0.00 | 0.00 | 46 | 1010.8 |
| 20260901000537 | 86 | 251 | 0.0 | 1.0 | 0.00 | 0.00 | 0.00 | 45 | 1010.8 |
| 20260901000039 | 86 | 251 | 0.0 | 2.0 | 0.00 | 0.00 | 0.00 | 44 | 1010.7 |
| 20260831235538 | 86 | 251 | 0.0 | 2.0 | 0.00 | 0.00 | 0.00 | 44 | 1010.8 |
| 20260831235038 | 87 | 286 | 0.0 | 0.0 | 0.00 | 0.00 | 0.00 | 44 | 1010.7 |
| 20260831234800 | 87 | 286 | 0.0 | 1.0 | 0.00 | 0.00 | 0.00 | 43 | 1010.6 |
| 20260831234037 | 87 | 286 | 0.0 | 2.0 | 0.00 | 0.00 | 0.00 | 42 | 1010.6 |
| 20260831233535 | 88 | 286 | 0.0 | 2.0 | 0.00 | 0.00 | 0.00 | 42 | 1010.6 |
| 20260831233030 | 88 | 255 | 0.0 | 1.0 | 0.00 | 0.00 | 0.00 | 41 | 1010.6 |
| 20260831232532 | 89 | 255 | 0.0 | 2.0 | 0.00 | 0.00 | 0.00 | 40 | 1010.6 |
| 20260831232029 | 89 | 251 | 1.0 | 2.0 | 0.00 | 0.00 | 0.00 | 41 | 1010.6 |
| 20260831231531 | 89 | 258 | 1.0 | 3.0 | 0.00 | 0.00 | 0.00 | 41 | 1010.6 |
| 20260831231032 | 89 | 254 | 0.0 | 4.0 | 0.00 | 0.00 | 0.00 | 40 | 1010.5 |
| 20260831230532 | 89 | 246 | 1.0 | 4.0 | 0.00 | 0.00 | 0.00 | 41 | 1010.6 |
| 20260831230031 | 89 | 263 | 1.0 | 2.0 | 0.00 | 0.00 | 0.00 | 41 | 1010.6 |
| 20260831225528 | 89 | 262 | 1.0 | 3.0 | 0.00 | 0.00 | 0.00 | 41 | 1010.5 |
| 20260831225028 | 89 | 259 | 1.0 | 3.0 | 0.00 | 0.00 | 0.00 | 41 | 1010.6 |
| 20260831224527 | 89 | 262 | 1.0 | 3.0 | 0.00 | 0.00 | 0.00 | 40 | 1010.5 |
| 20260831224027 | 89 | 233 | 1.0 | 6.0 | 0.00 | 0.00 | 0.00 | 40 | 1010.5 |
| 20260831223526 | 89 | 227 | 1.0 | 6.0 | 0.00 | 0.00 | 0.00 | 42 | 1010.5 |
| 20260831223024 | 89 | 259 | 1.0 | 6.0 | 0.00 | 0.00 | 0.00 | 41 | 1010.4 |
| 20260831222524 | 89 | 225 | 1.0 | 3.0 | 0.00 | 0.00 | 0.00 | 41 | 1010.4 |
| 20260831222025 | 90 | 224 | 0.0 | 3.0 | 0.00 | 0.00 | 0.00 | 40 | 1010.3 |
| 20260831221744 | 90 | 350 | 0.0 | 2.0 | 0.00 | 0.00 | 0.00 | 41 | 1010.2 |
| 20260831221017 | 90 | 351 | 0.0 | 2.0 | 0.00 | 0.00 | 0.00 | 42 | 1010.2 |
| 20260831220516 | 90 | 355 | 1.0 | 4.0 | 0.00 | 0.00 | 0.00 | 40 | 1010.2 |
| 20260831220017 | 91 | 355 | 2.0 | 4.0 | 0.00 | 0.00 | 0.00 | 41 | 1010.2 |
| 20260831215516 | 91 | 333 | 2.0 | 4.0 | 0.00 | 0.00 | 0.00 | 39 | 1010.0 |
| 20260831215014 | 91 | 331 | 1.0 | 3.0 | 0.00 | 0.00 | 0.00 | 38 | 1010.0 |
| 20260831214515 | 91 | 243 | 1.0 | 4.0 | 0.00 | 0.00 | 0.00 | 39 | 1010.0 |
| 20260831214016 | 92 | 246 | 1.0 | 4.0 | 0.00 | 0.00 | 0.00 | 39 | 1009.9 |
| 20260831213516 | 92 | 230 | 1.0 | 4.0 | 0.00 | 0.00 | 0.00 | 38 | 1009.9 |
| 20260831213012 | 92 | 355 | 1.0 | 6.0 | 0.00 | 0.00 | 0.00 | 36 | 1009.9 |
| 20260831212512 | 92 | 25 | 1.0 | 6.0 | 0.00 | 0.00 | 0.00 | 37 | 1009.9 |
| 20260831212012 | 91 | 263 | 2.0 | 5.0 | 0.00 | 0.00 | 0.00 | 38 | 1009.9 |
| 20260831211508 | 92 | 254 | 1.0 | 3.0 | 0.00 | 0.00 | 0.00 | 37 | 1009.8 |
| 20260831211008 | 92 | 333 | 2.0 | 4.0 | 0.00 | 0.00 | 0.00 | 37 | 1009.8 |
| 20260831210509 | 92 | 13 | 1.0 | 4.0 | 0.00 | 0.00 | 0.00 | 39 | 1009.7 |
| 20260831210008 | 92 | 312 | 1.0 | 6.0 | 0.00 | 0.00 | 0.00 | 39 | 1009.8 |
| 20260831205728 | 92 | 238 | 2.0 | 6.0 | 0.00 | 0.00 | 0.00 | 40 | 1009.8 |
| 20260831205010 | 91 | 282 | 2.0 | 6.0 | 0.00 | 0.00 | 0.00 | 42 | 1009.8 |
| 20260831204508 | 91 | 344 | 2.0 | 6.0 | 0.00 | 0.00 | 0.00 | 40 | 1009.8 |
| 20260831204007 | 91 | 292 | 2.0 | 6.0 | 0.00 | 0.00 | 0.00 | 41 | 1009.9 |
| 20260831203507 | 91 | 339 | 1.0 | 3.0 | 0.00 | 0.00 | 0.00 | 44 | 1009.8 |
| 20260831203010 | 91 | 314 | 1.0 | 5.0 | 0.00 | 0.00 | 0.00 | 45 | 1009.8 |
| 20260831202727 | 90 | 344 | 2.0 | 5.0 | 0.00 | 0.00 | 0.00 | 41 | 1009.9 |
| 20260831202005 | 91 | 343 | 2.0 | 5.0 | 0.00 | 0.00 | 0.00 | 43 | 1010.0 |
| 20260831201503 | 91 | 309 | 2.0 | 4.0 | 0.00 | 0.00 | 0.00 | 44 | 1009.9 |
| 20260831201004 | 91 | 312 | 1.0 | 4.0 | 0.00 | 0.00 | 0.00 | 45 | 1009.9 |
| 20260831200504 | 91 | 326 | 2.0 | 6.0 | 0.00 | 0.00 | 0.00 | 42 | 1009.9 |
| 20260831200006 | 91 | 338 | 2.0 | 6.0 | 0.00 | 0.00 | 0.00 | 44 | 1009.8 |
| 20260831195506 | 91 | 5 | 2.0 | 5.0 | 0.00 | 0.00 | 0.00 | 44 | 1009.8 |
| 20260831195004 | 90 | 307 | 3.0 | 6.0 | 0.00 | 0.00 | 0.00 | 46 | 1009.8 |
| 20260831194505 | 90 | 307 | 3.0 | 8.0 | 0.00 | 0.00 | 0.00 | 45 | 1009.7 |
| 20260831194226 | 91 | 351 | 3.0 | 8.0 | 0.00 | 0.00 | 0.00 | 47 | 1009.8 |
| 20260831193504 | 90 | 314 | 2.0 | 6.0 | 0.00 | 0.00 | 0.00 | 45 | 1009.8 |
| 20260831193005 | 90 | 327 | 2.0 | 5.0 | 0.00 | 0.00 | 0.00 | 48 | 1009.7 |
| 20260831192505 | 90 | 318 | 2.0 | 5.0 | 0.00 | 0.00 | 0.00 | 45 | 1009.8 |
| 20260831192003 | 90 | 206 | 2.0 | 9.0 | 0.00 | 0.00 | 0.00 | 46 | 1009.9 |
| 20260831191718 | 90 | 13 | 2.0 | 9.0 | 0.00 | 0.00 | 0.00 | 45 | 1009.8 |
| 20260831191222 | 90 | 355 | 2.0 | 6.0 | 0.00 | 0.00 | 0.00 | 46 | 1009.8 |
| 20260831190500 | 90 | 355 | 2.0 | 6.0 | 0.00 | 0.00 | 0.00 | 45 | 1009.7 |
| 20260831185959 | 89 | 0 | 2.0 | 6.0 | 0.00 | 0.00 | 0.00 | 49 | 1009.6 |
| 20260831185500 | 89 | 330 | 3.0 | 6.0 | 0.00 | 0.00 | 0.00 | 48 | 1009.7 |
| 20260831185003 | 89 | 321 | 3.0 | 8.0 | 0.00 | 0.00 | 0.00 | 47 | 1009.6 |
| 20260831184459 | 89 | 355 | 3.0 | 8.0 | 0.00 | 0.00 | 0.00 | 49 | 1009.5 |
| 20260831183959 | 89 | 5 | 3.0 | 7.0 | 0.00 | 0.00 | 0.00 | 49 | 1009.7 |
| 20260831183500 | 89 | 329 | 2.0 | 7.0 | 0.00 | 0.00 | 0.00 | 55 | 1009.6 |
| 20260831183000 | 88 | 336 | 2.0 | 4.0 | 0.00 | 0.00 | 0.00 | 59 | 1009.7 |
| 20260831182724 | 88 | 5 | 2.0 | 6.0 | 0.00 | 0.00 | 0.00 | 58 | 1009.7 |
| 20260831182001 | 89 | 329 | 3.0 | 6.0 | 0.00 | 0.00 | 0.00 | 57 | 1009.8 |
| 20260831181500 | 88 | 338 | 3.0 | 6.0 | 0.00 | 0.00 | 0.00 | 57 | 1009.7 |
| 20260831181001 | 88 | 342 | 2.0 | 5.0 | 0.00 | 0.00 | 0.00 | 58 | 1009.8 |
| 20260831180457 | 87 | 252 | 2.0 | 5.0 | 0.00 | 0.00 | 0.00 | 63 | 1009.8 |
| 20260831175955 | 87 | 306 | 1.0 | 4.0 | 0.00 | 0.00 | 0.00 | 63 | 1009.8 |
| 20260831175456 | 87 | 306 | 1.0 | 4.0 | 0.00 | 0.00 | 0.00 | 64 | 1009.7 |
| 20260831174959 | 87 | 340 | 2.0 | 4.0 | 0.00 | 0.00 | 0.00 | 63 | 1009.8 |
| 20260831174722 | 86 | 302 | 2.0 | 5.0 | 0.00 | 0.00 | 0.00 | 66 | 1009.8 |
| 20260831173954 | 86 | 317 | 1.0 | 5.0 | 0.00 | 0.00 | 0.00 | 67 | 1009.9 |
| 20260831173727 | 86 | 355 | 1.0 | 4.0 | 0.00 | 0.00 | 0.00 | 70 | 1009.9 |
| 20260831172953 | 85 | 336 | 1.0 | 5.0 | 0.00 | 0.00 | 0.00 | 70 | 1010.0 |
| 20260831172454 | 85 | 348 | 2.0 | 5.0 | 0.00 | 0.00 | 0.00 | 69 | 1010.2 |
| 20260831171954 | 85 | 355 | 2.0 | 5.0 | 0.00 | 0.00 | 0.00 | 70 | 1010.2 |
| 20260831171455 | 85 | 290 | 2.0 | 4.0 | 0.00 | 0.00 | 0.00 | 71 | 1010.2 |
| 20260831170951 | 85 | 342 | 1.0 | 3.0 | 0.00 | 0.00 | 0.00 | 71 | 1010.2 |
| 20260831170447 | 85 | 314 | 2.0 | 7.0 | 0.00 | 0.00 | 0.00 | 70 | 1010.0 |
| 20260831165949 | 85 | 315 | 2.0 | 7.0 | 0.00 | 0.00 | 0.00 | 70 | 1010.0 |
| 20260831165448 | 85 | 0 | 2.0 | 6.0 | 0.00 | 0.00 | 0.00 | 70 | 1010.2 |
| 20260831164948 | 86 | 38 | 2.0 | 5.0 | 0.00 | 0.00 | 0.00 | 71 | 1010.0 |
| 20260831164448 | 85 | 338 | 1.0 | 4.0 | 0.00 | 0.00 | 0.00 | 72 | 1009.9 |
| 20260831163946 | 85 | 336 | 1.0 | 5.0 | 0.00 | 0.00 | 0.00 | 73 | 1009.9 |
| 20260831163446 | 85 | 302 | 1.0 | 5.0 | 0.00 | 0.00 | 0.00 | 76 | 1009.8 |
| 20260831162944 | 84 | 336 | 1.0 | 3.0 | 0.00 | 0.00 | 0.00 | 77 | 1009.7 |
| 20260831162442 | 84 | 343 | 1.0 | 3.0 | 0.00 | 0.00 | 0.00 | 75 | 1009.7 |
| 20260831162200 | 83 | 5 | 2.0 | 5.0 | 0.00 | 0.00 | 0.00 | 76 | 1009.7 |
| 20260831161441 | 83 | 5 | 1.0 | 5.0 | 0.00 | 0.00 | 0.00 | 76 | 1009.7 |
| 20260831160944 | 83 | 325 | 1.0 | 4.0 | 0.00 | 0.00 | 0.00 | 77 | 1009.8 |
| 20260831160437 | 83 | 323 | 1.0 | 4.0 | 0.00 | 0.00 | 0.00 | 79 | 1009.8 |
| 20260831155935 | 83 | 310 | 1.0 | 5.0 | 0.00 | 0.00 | 0.00 | 77 | 1009.8 |
| 20260831155435 | 82 | 348 | 1.0 | 5.0 | 0.00 | 0.00 | 0.00 | 78 | 1009.8 |
| 20260831154936 | 82 | 350 | 1.0 | 5.0 | 0.00 | 0.00 | 0.00 | 77 | 1009.8 |
| 20260831154435 | 83 | 355 | 2.0 | 5.0 | 0.00 | 0.00 | 0.00 | 77 | 1009.8 |
| 20260831153937 | 83 | 13 | 2.0 | 5.0 | 0.00 | 0.00 | 0.00 | 77 | 1009.8 |
| 20260831153435 | 83 | 0 | 1.0 | 5.0 | 0.00 | 0.00 | 0.00 | 80 | 1009.8 |
| 20260831152935 | 83 | 348 | 1.0 | 3.0 | 0.00 | 0.00 | 0.00 | 81 | 1009.6 |
| 20260831152435 | 82 | 285 | 1.0 | 2.0 | 0.00 | 0.00 | 0.00 | 80 | 1009.5 |
| 20260831151933 | 82 | 235 | 1.0 | 2.0 | 0.00 | 0.00 | 0.00 | 82 | 1009.5 |
| 20260831151433 | 81 | 235 | 1.0 | 2.0 | 0.00 | 0.00 | 0.00 | 82 | 1009.3 |
| 20260831150935 | 81 | 230 | 1.0 | 2.0 | 0.00 | 0.00 | 0.00 | 82 | 1009.2 |
| 20260831150428 | 81 | 355 | 1.0 | 7.0 | 0.00 | 0.00 | 0.00 | 83 | 1009.1 |
| 20260831145917 | 80 | 5 | 1.0 | 7.0 | 0.00 | 0.00 | 0.00 | 83 | 1009.0 |
| 20260831145859 | 80 | 9 | 1.0 | 4.0 | 0.00 | 0.00 | 0.00 | 83 | 1009.0 |
| 20260831144906 | 80 | 10 | 1.0 | 3.0 | 0.00 | 0.00 | 0.00 | 84 | 1008.9 |
| 20260831144402 | 79 | 14 | 1.0 | 5.0 | 0.00 | 0.00 | 0.00 | 85 | 1008.9 |
| 20260831143900 | 79 | 250 | 1.0 | 5.0 | 0.00 | 0.00 | 0.00 | 85 | 1008.8 |
| 20260831143401 | 79 | 250 | 0.0 | 4.0 | 0.00 | 0.00 | 0.00 | 85 | 1008.8 |
| 20260831142859 | 79 | 248 | 1.0 | 3.0 | 0.00 | 0.00 | 0.00 | 86 | 1008.9 |
| 20260831142358 | 78 | 244 | 1.0 | 3.0 | 0.00 | 0.00 | 0.00 | 87 | 1008.7 |
| 20260831141859 | 78 | 236 | 1.0 | 5.0 | 0.00 | 0.00 | 0.00 | 87 | 1008.7 |
| 20260831141358 | 77 | 234 | 1.0 | 5.0 | 0.00 | 0.00 | 0.00 | 89 | 1008.7 |
| 20260831141343 | 76 | 234 | 1.0 | 3.0 | 0.00 | 0.00 | 0.00 | 91 | 1008.5 |
| 20260831140855 | 77 | 236 | 0.0 | 2.0 | 0.00 | 0.00 | 0.00 | 89 | 1008.6 |
| 20260831135856 | 76 | 211 | 2.0 | 4.0 | 0.00 | 0.00 | 0.00 | 92 | 1008.5 |
| 20260831135353 | 75 | 273 | 2.0 | 5.0 | 0.00 | 0.00 | 0.00 | 94 | 1008.4 |
| 20260831134851 | 74 | 258 | 2.0 | 5.0 | 0.00 | 0.00 | 0.00 | 94 | 1008.4 |
| 20260831134611 | 74 | 208 | 2.0 | 6.0 | 0.00 | 0.00 | 0.00 | 96 | 1008.4 |
| 20260831134109 | 73 | 238 | 3.0 | 6.0 | 0.00 | 0.00 | 0.00 | 96 | 1008.3 |
| 20260831133347 | 73 | 238 | 2.0 | 5.0 | 0.00 | 0.00 | 0.00 | 96 | 1008.3 |
| 20260831133110 | 73 | 244 | 1.0 | 5.0 | 0.00 | 0.00 | 0.00 | 96 | 1008.3 |
| 20260831132341 | 72 | 250 | 0.0 | 2.0 | 0.00 | 0.00 | 0.00 | 96 | 1008.2 |
| 20260831131841 | 72 | 246 | 0.0 | 3.0 | 0.00 | 0.00 | 0.00 | 96 | 1008.1 |
| 20260831131339 | 72 | 246 | 1.0 | 3.0 | 0.00 | 0.00 | 0.00 | 95 | 1008.0 |
| 20260831130840 | 72 | 241 | 1.0 | 3.0 | 0.00 | 0.00 | 0.00 | 95 | 1008.0 |
| 20260831130340 | 72 | 246 | 2.0 | 5.0 | 0.00 | 0.00 | 0.00 | 95 | 1008.1 |
| 20260831130059 | 72 | 235 | 2.0 | 6.0 | 0.00 | 0.00 | 0.00 | 96 | 1008.0 |
| 20260831125354 | 72 | 216 | 1.0 | 6.0 | 0.00 | 0.00 | 0.00 | 96 | 1008.0 |
| 20260831124839 | 71 | 225 | 0.0 | 2.0 | 0.00 | 0.00 | 0.00 | 96 | 1008.0 |
| 20260831124339 | 71 | 225 | 0.0 | 0.0 | 0.00 | 0.00 | 0.00 | 96 | 1007.8 |
| 20260831123839 | 71 | 160 | 0.0 | 0.0 | 0.00 | 0.00 | 0.00 | 95 | 1007.7 |
| 20260831123339 | 70 | 159 | 0.0 | 0.0 | 0.00 | 0.00 | 0.00 | 95 | 1007.7 |
| 20260831122839 | 70 | 156 | 0.0 | 0.0 | 0.00 | 0.00 | 0.00 | 95 | 1007.7 |
| 20260831122556 | 70 | 157 | 0.0 | 0.0 | 0.00 | 0.00 | 0.00 | 95 | 1007.6 |
| 20260831121836 | 70 | 156 | 0.0 | 0.0 | 0.00 | 0.00 | 0.00 | 95 | 1007.6 |
| 20260831121336 | 70 | 156 | 0.0 | 0.0 | 0.00 | 0.00 | 0.00 | 95 | 1007.6 |
| 20260831120834 | 70 | 156 | 0.0 | 0.0 | 0.00 | 0.00 | 0.00 | 95 | 1007.6 |
| 20260831120328 | 70 | 156 | 0.0 | 0.0 | 0.00 | 0.00 | 0.00 | 95 | 1007.6 |
| 20260831115823 | 70 | 156 | 0.0 | 0.0 | 0.00 | 0.00 | 0.00 | 95 | 1007.5 |
| 20260831115323 | 70 | 156 | 0.0 | 0.0 | 0.00 | 0.00 | 0.00 | 95 | 1007.4 |
| 20260831114820 | 70 | 156 | 0.0 | 0.0 | 0.00 | 0.00 | 0.00 | 95 | 1007.3 |
| 20260831114318 | 70 | 156 | 0.0 | 0.0 | 0.00 | 0.00 | 0.00 | 95 | 1007.3 |
| 20260831113818 | 70 | 156 | 0.0 | 0.0 | 0.00 | 0.00 | 0.00 | 94 | 1007.2 |
| 20260831113317 | 70 | 156 | 0.0 | 0.0 | 0.00 | 0.00 | 0.00 | 94 | 1007.3 |
| 20260831112817 | 70 | 156 | 0.0 | 0.0 | 0.00 | 0.00 | 0.00 | 94 | 1007.0 |
| 20260831112319 | 70 | 156 | 0.0 | 0.0 | 0.00 | 0.00 | 0.00 | 94 | 1007.0 |
| 20260831111815 | 71 | 156 | 0.0 | 0.0 | 0.00 | 0.00 | 0.00 | 94 | 1007.0 |
| 20260831111314 | 71 | 156 | 0.0 | 0.0 | 0.00 | 0.00 | 0.00 | 94 | 1007.0 |
| 20260831111032 | 71 | 156 | 0.0 | 0.0 | 0.00 | 0.00 | 0.00 | 94 | 1006.9 |
| 20260831110313 | 71 | 156 | 0.0 | 0.0 | 0.00 | 0.00 | 0.00 | 94 | 1006.7 |
| 20260831105811 | 71 | 156 | 0.0 | 2.0 | 0.00 | 0.00 | 0.00 | 94 | 1006.6 |
| 20260831105308 | 71 | 156 | 0.0 | 2.0 | 0.00 | 0.00 | 0.00 | 94 | 1006.7 |
| 20260831104808 | 71 | 156 | 0.0 | 2.0 | 0.00 | 0.00 | 0.00 | 94 | 1006.7 |
| 20260831104308 | 71 | 157 | 0.0 | 0.0 | 0.00 | 0.00 | 0.00 | 94 | 1006.7 |
| 20260831103758 | 71 | 157 | 0.0 | 0.0 | 0.00 | 0.00 | 0.00 | 94 | 1006.8 |
| 20260831103257 | 71 | 157 | 0.0 | 0.0 | 0.00 | 0.00 | 0.00 | 94 | 1006.9 |
| 20260831102759 | 71 | 157 | 1.0 | 3.0 | 0.00 | 0.00 | 0.00 | 94 | 1006.9 |
| 20260831102255 | 71 | 157 | 1.0 | 3.0 | 0.00 | 0.00 | 0.00 | 93 | 1006.6 |
| 20260831101755 | 71 | 157 | 1.0 | 3.0 | 0.00 | 0.00 | 0.00 | 93 | 1006.7 |
| 20260831101253 | 71 | 157 | 1.0 | 3.0 | 0.00 | 0.00 | 0.00 | 93 | 1006.7 |
| 20260831100753 | 71 | 156 | 1.0 | 3.0 | 0.00 | 0.00 | 0.00 | 93 | 1006.7 |
| 20260831100254 | 71 | 156 | 1.0 | 2.0 | 0.00 | 0.00 | 0.00 | 93 | 1006.8 |
| 20260831095751 | 71 | 157 | 1.0 | 2.0 | 0.00 | 0.00 | 0.00 | 93 | 1006.7 |
| 20260831095249 | 71 | 157 | 1.0 | 3.0 | 0.00 | 0.00 | 0.00 | 93 | 1006.7 |
| 20260831094751 | 72 | 161 | 2.0 | 4.0 | 0.00 | 0.00 | 0.00 | 93 | 1006.6 |
| 20260831094248 | 72 | 161 | 2.0 | 4.0 | 0.00 | 0.00 | 0.00 | 93 | 1006.7 |
| 20260831093747 | 72 | 140 | 0.0 | 3.0 | 0.00 | 0.00 | 0.00 | 93 | 1006.6 |
| 20260831093245 | 72 | 143 | 1.0 | 3.0 | 0.00 | 0.00 | 0.00 | 92 | 1006.7 |
| 20260831092743 | 72 | 138 | 2.0 | 4.0 | 0.00 | 0.00 | 0.00 | 92 | 1006.6 |
| 20260831092243 | 72 | 124 | 2.0 | 4.0 | 0.00 | 0.00 | 0.00 | 92 | 1006.5 |
| 20260831092004 | 72 | 150 | 1.0 | 4.0 | 0.00 | 0.00 | 0.00 | 92 | 1006.5 |
| 20260831091235 | 72 | 144 | 2.0 | 4.0 | 0.00 | 0.00 | 0.00 | 92 | 1006.7 |
| 20260831090734 | 72 | 138 | 2.0 | 4.0 | 0.00 | 0.00 | 0.00 | 92 | 1006.7 |
| 20260831090456 | 72 | 144 | 2.0 | 4.0 | 0.00 | 0.00 | 0.00 | 92 | 1006.6 |
| 20260831085734 | 72 | 140 | 1.0 | 5.0 | 0.00 | 0.00 | 0.00 | 92 | 1006.6 |
| 20260831085233 | 72 | 128 | 1.0 | 5.0 | 0.00 | 0.00 | 0.00 | 92 | 1006.6 |
| 20260831084733 | 72 | 141 | 1.0 | 5.0 | 0.00 | 0.00 | 0.00 | 92 | 1006.6 |
| 20260831084231 | 72 | 133 | 1.0 | 3.0 | 0.00 | 0.00 | 0.00 | 91 | 1006.7 |
| 20260831083731 | 73 | 134 | 1.0 | 6.0 | 0.00 | 0.00 | 0.00 | 91 | 1006.5 |
| 20260831083231 | 73 | 140 | 1.0 | 6.0 | 0.00 | 0.00 | 0.00 | 91 | 1006.4 |
| 20260831082731 | 73 | 115 | 1.0 | 4.0 | 0.00 | 0.00 | 0.00 | 91 | 1006.4 |
| 20260831082228 | 73 | 140 | 2.0 | 4.0 | 0.00 | 0.00 | 0.00 | 91 | 1006.4 |
| 20260831081729 | 73 | 148 | 2.0 | 6.0 | 0.00 | 0.00 | 0.00 | 91 | 1006.4 |
| 20260831081446 | 73 | 138 | 3.0 | 6.0 | 0.00 | 0.00 | 0.00 | 91 | 1006.2 |
| 20260831080719 | 73 | 161 | 2.0 | 6.0 | 0.00 | 0.00 | 0.00 | 91 | 1006.4 |
| 20260831080221 | 73 | 132 | 2.0 | 6.0 | 0.00 | 0.00 | 0.00 | 91 | 1006.5 |
| 20260831075717 | 73 | 135 | 2.0 | 5.0 | 0.00 | 0.00 | 0.00 | 91 | 1006.5 |
| 20260831075217 | 73 | 134 | 2.0 | 4.0 | 0.00 | 0.00 | 0.00 | 90 | 1006.5 |
| 20260831074715 | 73 | 154 | 1.0 | 4.0 | 0.00 | 0.00 | 0.00 | 90 | 1006.5 |
| 20260831074416 | 73 | 147 | 2.0 | 7.0 | 0.00 | 0.00 | 0.00 | 90 | 1006.5 |
| 20260831074303 | 73 | 139 | 1.0 | 7.0 | 0.00 | 0.00 | 0.00 | 90 | 1006.5 |
| 20260831073214 | 73 | 128 | 2.0 | 4.0 | 0.00 | 0.00 | 0.00 | 90 | 1006.5 |
| 20260831072713 | 73 | 140 | 2.0 | 5.0 | 0.00 | 0.00 | 0.00 | 90 | 1006.5 |
| 20260831072212 | 73 | 124 | 3.0 | 7.0 | 0.00 | 0.00 | 0.00 | 90 | 1006.6 |
| 20260831071713 | 73 | 150 | 3.0 | 8.0 | 0.00 | 0.00 | 0.00 | 90 | 1006.6 |
| 20260831071213 | 73 | 179 | 3.0 | 8.0 | 0.00 | 0.00 | 0.00 | 89 | 1006.6 |
| 20260831070713 | 73 | 173 | 2.0 | 7.0 | 0.00 | 0.00 | 0.00 | 89 | 1006.6 |
| 20260831070215 | 73 | 140 | 3.0 | 7.0 | 0.00 | 0.00 | 0.00 | 89 | 1006.8 |
| 20260831065713 | 73 | 152 | 3.0 | 6.0 | 0.00 | 0.00 | 0.00 | 89 | 1006.7 |
| 20260831065213 | 73 | 143 | 2.0 | 6.0 | 0.00 | 0.00 | 0.00 | 89 | 1006.8 |
| 20260831064946 | 73 | 135 | 2.0 | 7.0 | 0.00 | 0.00 | 0.00 | 89 | 1006.9 |
| 20260831064428 | 73 | 134 | 1.0 | 6.0 | 0.00 | 0.00 | 0.00 | 89 | 1007.1 |
| 20260831064308 | 73 | 146 | 2.0 | 7.0 | 0.00 | 0.00 | 0.00 | 89 | 1007.0 |
| 20260831063213 | 73 | 138 | 2.0 | 7.0 | 0.00 | 0.00 | 0.00 | 89 | 1007.1 |
| 20260831062714 | 73 | 150 | 1.0 | 7.0 | 0.00 | 0.00 | 0.00 | 89 | 1007.1 |
| 20260831062439 | 73 | 144 | 2.0 | 7.0 | 0.00 | 0.00 | 0.00 | 88 | 1007.3 |
| 20260831061713 | 73 | 157 | 2.0 | 7.0 | 0.00 | 0.00 | 0.00 | 88 | 1007.3 |
| 20260831061212 | 73 | 106 | 2.0 | 5.0 | 0.00 | 0.00 | 0.00 | 88 | 1007.3 |
| 20260831060714 | 73 | 128 | 2.0 | 5.0 | 0.00 | 0.00 | 0.00 | 88 | 1007.4 |
| 20260831060432 | 73 | 147 | 2.0 | 4.0 | 0.00 | 0.00 | 0.00 | 88 | 1007.4 |
| 20260831055710 | 74 | 138 | 2.0 | 6.0 | 0.00 | 0.00 | 0.00 | 88 | 1007.3 |
| 20260831055659 | 74 | 138 | 3.0 | 6.0 | 0.00 | 0.00 | 0.00 | 88 | 1007.2 |
| 20260831054937 | 74 | 140 | 2.0 | 5.0 | 0.00 | 0.00 | 0.00 | 87 | 1007.4 |
| 20260831054208 | 74 | 142 | 2.0 | 5.0 | 0.00 | 0.00 | 0.00 | 87 | 1007.5 |
| 20260831053710 | 74 | 142 | 3.0 | 6.0 | 0.00 | 0.00 | 0.00 | 87 | 1007.6 |
| 20260831053210 | 74 | 135 | 3.0 | 6.0 | 0.00 | 0.00 | 0.00 | 87 | 1007.6 |
| 20260831052709 | 74 | 142 | 2.0 | 6.0 | 0.00 | 0.00 | 0.00 | 86 | 1007.7 |
| 20260831052210 | 74 | 138 | 2.0 | 6.0 | 0.00 | 0.00 | 0.00 | 86 | 1007.8 |
| 20260831051704 | 74 | 144 | 2.0 | 6.0 | 0.00 | 0.00 | 0.00 | 86 | 1007.8 |
| 20260831051217 | 74 | 148 | 2.0 | 7.0 | 0.00 | 0.00 | 0.00 | 86 | 1007.9 |
| 20260831050705 | 74 | 153 | 2.0 | 7.0 | 0.00 | 0.00 | 0.00 | 86 | 1007.9 |
| 20260831050219 | 74 | 145 | 2.0 | 5.0 | 0.00 | 0.00 | 0.00 | 86 | 1008.1 |
| 20260831045705 | 74 | 138 | 2.0 | 7.0 | 0.00 | 0.00 | 0.00 | 85 | 1008.0 |
| 20260831045648 | 74 | 175 | 2.0 | 7.0 | 0.00 | 0.00 | 0.00 | 85 | 1008.0 |
| 20260831045144 | 74 | 155 | 1.0 | 4.0 | 0.00 | 0.00 | 0.00 | 85 | 1008.0 |
| 20260831044206 | 75 | 150 | 1.0 | 4.0 | 0.00 | 0.00 | 0.00 | 85 | 1008.1 |
| 20260831043702 | 75 | 157 | 1.0 | 5.0 | 0.00 | 0.00 | 0.00 | 85 | 1008.1 |